Time,TemperatureF,DewpointF,PressureIn,WindDirection,WindDirectionDegrees,WindSpeedMPH,WindSpeedGustMPH,Humidity,HourlyPrecipIn,Conditions,Clouds,dailyrainin,SoftwareType,DateUTC
2013-05-10 00:03:00,66.0,59.0,30.10,North,355,0.0,0.0,77,0.00,,,0.00,,2013-05-10 04:03:00,
2013-05-10 00:12:00,66.0,59.0,30.10,North,355,0.0,0.0,77,0.00,,,0.00,,2013-05-10 04:12:00,
2013-05-10 00:23:00,66.0,59.0,30.09,North,355,0.0,0.0,79,0.00,,,0.00,,2013-05-10 04:23:00,
2013-05-10 00:33:00,64.0,58.0,30.10,North,355,0.0,0.0,82,0.00,,,0.00,,2013-05-10 04:33:00,
2013-05-10 00:43:00,64.0,59.0,30.10,North,355,0.0,0.0,83,0.00,,,0.00,,2013-05-10 04:43:00,
2013-05-10 00:53:00,64.0,59.0,30.10,North,355,0.0,0.0,83,0.00,,,0.00,,2013-05-10 04:53:00,
2013-05-10 01:02:00,64.0,59.0,30.10,North,355,0.0,0.0,84,0.00,,,0.00,,2013-05-10 05:02:00,
2013-05-10 01:12:00,64.0,59.0,30.10,North,355,0.0,0.0,85,0.00,,,0.00,,2013-05-10 05:12:00,
2013-05-10 01:22:00,64.0,59.0,30.10,North,355,0.0,0.0,85,0.00,,,0.00,,2013-05-10 05:22:00,
2013-05-10 01:32:00,64.0,59.0,30.10,North,355,0.0,0.0,84,0.00,,,0.00,,2013-05-10 05:32:00,
2013-05-10 01:42:00,64.0,59.0,30.09,North,355,0.0,0.0,84,0.00,,,0.00,,2013-05-10 05:42:00,
2013-05-10 01:52:00,64.0,59.0,30.09,North,355,0.0,0.0,84,0.00,,,0.00,,2013-05-10 05:52:00,
2013-05-10 02:02:00,64.0,59.0,30.09,North,355,0.0,0.0,84,0.00,,,0.00,,2013-05-10 06:02:00,
2013-05-10 02:12:00,63.0,58.0,30.08,North,355,0.0,0.0,84,0.00,,,0.00,,2013-05-10 06:12:00,
2013-05-10 02:21:00,63.0,58.0,30.08,North,355,0.0,0.0,84,0.00,,,0.00,,2013-05-10 06:21:00,
2013-05-10 02:32:00,63.0,59.0,30.07,North,355,0.0,0.0,86,0.00,,,0.00,,2013-05-10 06:32:00,
2013-05-10 02:42:00,63.0,59.0,30.07,North,355,0.0,0.0,86,0.00,,,0.00,,2013-05-10 06:42:00,
2013-05-10 02:52:00,63.0,59.0,30.07,North,355,0.0,0.0,86,0.00,,,0.00,,2013-05-10 06:52:00,
2013-05-10 03:02:00,62.0,58.0,30.06,North,355,0.0,0.0,86,0.00,,,0.00,,2013-05-10 07:02:00,
2013-05-10 03:12:00,62.0,58.0,30.06,North,355,0.0,0.0,86,0.00,,,0.00,,2013-05-10 07:12:00,
2013-05-10 03:22:00,61.0,58.0,30.05,North,355,0.0,0.0,89,0.00,,,0.00,,2013-05-10 07:22:00,
2013-05-10 03:31:00,60.0,57.0,30.05,North,355,0.0,0.0,90,0.00,,,0.00,,2013-05-10 07:31:00,
2013-05-10 03:42:00,61.0,58.0,30.04,North,355,0.0,0.0,90,0.00,,,0.00,,2013-05-10 07:42:00,
2013-05-10 03:52:00,61.0,58.0,30.04,North,355,0.0,0.0,90,0.00,,,0.00,,2013-05-10 07:52:00,
2013-05-10 04:02:00,61.0,58.0,30.05,North,355,0.0,0.0,90,0.00,,,0.00,,2013-05-10 08:02:00,
2013-05-10 04:12:00,61.0,58.0,30.05,North,355,0.0,0.0,90,0.00,,,0.00,,2013-05-10 08:12:00,
2013-05-10 04:22:00,61.0,58.0,30.04,North,355,0.0,0.0,89,0.00,,,0.00,,2013-05-10 08:22:00,
2013-05-10 04:32:00,61.0,57.0,30.04,North,355,0.0,0.0,88,0.00,,,0.00,,2013-05-10 08:32:00,
2013-05-10 04:42:00,61.0,57.0,30.04,North,355,0.0,0.0,88,0.00,,,0.00,,2013-05-10 08:42:00,
2013-05-10 04:52:00,61.0,57.0,30.04,North,355,0.0,0.0,88,0.00,,,0.00,,2013-05-10 08:52:00,
2013-05-10 05:01:00,61.0,57.0,30.03,North,355,0.0,0.0,88,0.00,,,0.00,,2013-05-10 09:01:00,
2013-05-10 05:11:00,61.0,57.0,30.03,North,355,0.0,0.0,88,0.00,,,0.00,,2013-05-10 09:11:00,
2013-05-10 05:21:00,61.0,57.0,30.03,North,355,0.0,0.0,88,0.00,,,0.00,,2013-05-10 09:21:00,
2013-05-10 05:33:00,61.0,57.0,30.03,North,355,0.0,0.0,88,0.00,,,0.00,,2013-05-10 09:33:00,
2013-05-10 05:43:00,61.0,57.0,30.03,North,355,0.0,0.0,88,0.00,,,0.00,,2013-05-10 09:43:00,
2013-05-10 05:52:00,61.0,57.0,30.03,North,355,0.0,0.0,88,0.00,,,0.00,,2013-05-10 09:52:00,
2013-05-10 06:03:00,61.0,57.0,30.03,North,355,0.0,0.0,87,0.00,,,0.00,,2013-05-10 10:03:00,
2013-05-10 06:12:00,61.0,57.0,30.03,North,355,0.0,0.0,87,0.00,,,0.00,,2013-05-10 10:12:00,
2013-05-10 06:23:00,60.0,56.0,30.03,North,355,0.0,0.0,88,0.00,,,0.00,,2013-05-10 10:23:00,
2013-05-10 06:32:00,60.0,57.0,30.03,North,355,0.0,0.0,90,0.00,,,0.00,,2013-05-10 10:32:00,
2013-05-10 06:42:00,60.0,57.0,30.03,North,355,0.0,0.0,90,0.00,,,0.00,,2013-05-10 10:42:00,
2013-05-10 06:53:00,59.0,56.0,30.03,North,355,0.0,0.0,90,0.00,,,0.00,,2013-05-10 10:53:00,
2013-05-10 07:02:00,59.0,57.0,30.04,North,355,0.0,0.0,93,0.00,,,0.00,,2013-05-10 11:02:00,
2013-05-10 07:12:00,60.0,58.0,30.04,North,355,0.0,0.0,92,0.00,,,0.00,,2013-05-10 11:12:00,
2013-05-10 07:22:00,60.0,58.0,30.04,North,355,0.0,0.0,92,0.00,,,0.00,,2013-05-10 11:22:00,
2013-05-10 07:32:00,60.0,57.0,30.05,North,355,0.0,0.0,91,0.00,,,0.00,,2013-05-10 11:32:00,
2013-05-10 07:42:00,60.0,57.0,30.05,North,355,0.0,0.0,91,0.00,,,0.00,,2013-05-10 11:42:00,
2013-05-10 07:52:00,60.0,57.0,30.05,North,355,0.0,0.0,91,0.00,,,0.00,,2013-05-10 11:52:00,
2013-05-10 08:01:00,60.0,58.0,30.05,North,355,0.0,0.0,92,0.00,,,0.00,,2013-05-10 12:01:00,
2013-05-10 08:12:00,60.0,58.0,30.05,North,355,0.0,0.0,92,0.00,,,0.00,,2013-05-10 12:12:00,
2013-05-10 08:22:00,61.0,59.0,30.06,North,355,0.0,0.0,92,0.00,,,0.00,,2013-05-10 12:22:00,
2013-05-10 08:32:00,62.0,59.0,30.06,North,355,0.0,0.0,91,0.00,,,0.00,,2013-05-10 12:32:00,
2013-05-10 08:42:00,62.0,59.0,30.06,North,355,0.0,0.0,91,0.00,,,0.00,,2013-05-10 12:42:00,
2013-05-10 08:52:00,63.0,60.0,30.05,North,355,0.0,0.0,89,0.00,,,0.00,,2013-05-10 12:52:00,
2013-05-10 09:01:00,64.0,60.0,30.06,North,355,0.0,1.0,88,0.00,,,0.00,,2013-05-10 13:01:00,
2013-05-10 09:11:00,64.0,60.0,30.06,North,355,0.0,1.0,88,0.00,,,0.00,,2013-05-10 13:11:00,
2013-05-10 09:21:00,65.0,61.0,30.07,North,355,0.0,0.0,87,0.00,,,0.00,,2013-05-10 13:21:00,
2013-05-10 09:32:00,66.0,60.0,30.06,North,5,0.0,0.0,81,0.00,,,0.00,,2013-05-10 13:32:00,
2013-05-10 09:42:00,67.0,61.0,30.07,North,5,0.0,1.0,81,0.00,,,0.00,,2013-05-10 13:42:00,
2013-05-10 09:52:00,67.0,61.0,30.07,North,5,0.0,1.0,81,0.00,,,0.00,,2013-05-10 13:52:00,
2013-05-10 10:02:00,67.0,61.0,30.07,South,170,0.0,3.0,80,0.00,,,0.00,,2013-05-10 14:02:00,
2013-05-10 10:11:00,67.0,61.0,30.07,South,170,0.0,3.0,80,0.00,,,0.00,,2013-05-10 14:11:00,
2013-05-10 10:21:00,68.0,61.0,30.07,NNW,348,0.0,4.0,78,0.00,,,0.00,,2013-05-10 14:21:00,
2013-05-10 10:32:00,68.0,61.0,30.07,WNW,301,0.0,9.0,78,0.00,,,0.00,,2013-05-10 14:32:00,
2013-05-10 10:42:00,69.0,61.0,30.07,WNW,288,1.0,5.0,75,0.00,,,0.00,,2013-05-10 14:42:00,
2013-05-10 10:52:00,69.0,61.0,30.07,WNW,288,1.0,5.0,75,0.00,,,0.00,,2013-05-10 14:52:00,
2013-05-10 11:02:00,69.0,60.0,30.08,WSW,249,0.0,5.0,73,0.00,,,0.00,,2013-05-10 15:02:00,
2013-05-10 11:20:00,-999.0,-99.9,30.09,WNW,283,1.0,3.0,75,0.00,,,0.00,,2013-05-10 15:20:00,
2013-05-10 11:32:00,70.0,61.0,30.09,NNW,328,0.0,5.0,73,0.00,,,0.00,,2013-05-10 15:32:00,
2013-05-10 11:42:00,72.0,63.0,30.09,WSW,255,1.0,3.0,73,0.00,,,0.00,,2013-05-10 15:42:00,
2013-05-10 11:53:00,72.0,63.0,30.09,WSW,255,1.0,3.0,73,0.00,,,0.00,,2013-05-10 15:53:00,
2013-05-10 12:02:00,71.0,62.0,30.08,North,5,0.0,4.0,73,0.00,,,0.00,,2013-05-10 16:02:00,
2013-05-10 12:12:00,72.0,62.0,30.08,WSW,242,1.0,3.0,71,0.00,,,0.00,,2013-05-10 16:12:00,
2013-05-10 12:23:00,72.0,62.0,30.08,WSW,242,1.0,3.0,71,0.00,,,0.00,,2013-05-10 16:23:00,
2013-05-10 12:33:00,71.0,62.0,30.08,NW,304,1.0,2.0,72,0.00,,,0.00,,2013-05-10 16:33:00,
2013-05-10 12:42:00,72.0,63.0,30.08,West,275,0.0,3.0,74,0.00,,,0.00,,2013-05-10 16:42:00,
2013-05-10 12:53:00,72.0,63.0,30.08,West,275,0.0,3.0,74,0.00,,,0.00,,2013-05-10 16:53:00,
2013-05-10 13:02:00,73.0,62.0,30.08,WSW,246,1.0,5.0,69,0.00,,,0.00,,2013-05-10 17:02:00,
2013-05-10 13:12:00,73.0,62.0,30.08,WSW,246,1.0,5.0,69,0.00,,,0.00,,2013-05-10 17:12:00,
2013-05-10 13:22:00,72.0,61.0,30.07,West,271,1.0,3.0,69,0.00,,,0.00,,2013-05-10 17:22:00,
2013-05-10 13:32:00,72.0,61.0,30.06,WSW,244,1.0,6.0,69,0.00,,,0.00,,2013-05-10 17:32:00,
2013-05-10 13:42:00,72.0,60.0,30.06,NW,306,1.0,3.0,66,0.00,,,0.00,,2013-05-10 17:42:00,
2013-05-10 13:52:00,72.0,60.0,30.06,NW,306,1.0,3.0,66,0.00,,,0.00,,2013-05-10 17:52:00,
2013-05-10 14:10:00,-999.0,-99.9,30.06,SE,130,1.0,4.0,69,0.00,,,0.00,,2013-05-10 18:10:00,
2013-05-10 14:22:00,74.0,62.0,30.06,ENE,62,1.0,5.0,67,0.00,,,0.00,,2013-05-10 18:22:00,
2013-05-10 14:34:00,74.0,62.0,30.05,West,277,0.0,3.0,67,0.00,,,0.00,,2013-05-10 18:34:00,
2013-05-10 14:43:00,74.0,61.0,30.05,NW,322,1.0,2.0,63,0.00,,,0.00,,2013-05-10 18:43:00,
2013-05-10 14:54:00,74.0,61.0,30.05,NW,322,1.0,2.0,63,0.00,,,0.00,,2013-05-10 18:54:00,
2013-05-10 15:02:00,73.0,61.0,30.04,West,267,0.0,2.0,65,0.00,,,0.00,,2013-05-10 19:02:00,
2013-05-10 15:11:00,73.0,61.0,30.04,West,267,0.0,2.0,65,0.00,,,0.00,,2013-05-10 19:11:00,
2013-05-10 15:21:00,73.0,61.0,30.04,WSW,237,0.0,2.0,65,0.00,,,0.00,,2013-05-10 19:21:00,
2013-05-10 15:32:00,72.0,59.0,30.03,SSE,165,0.0,2.0,63,0.00,,,0.00,,2013-05-10 19:32:00,
2013-05-10 15:42:00,72.0,60.0,30.02,WNW,300,0.0,1.0,66,0.00,,,0.00,,2013-05-10 19:42:00,
2013-05-10 15:52:00,72.0,60.0,30.02,WNW,300,0.0,1.0,66,0.00,,,0.00,,2013-05-10 19:52:00,
2013-05-10 16:02:00,72.0,61.0,30.02,WNW,300,0.0,1.0,69,0.00,,,0.00,,2013-05-10 20:02:00,
2013-05-10 16:12:00,72.0,61.0,30.02,WNW,300,0.0,1.0,69,0.00,,,0.00,,2013-05-10 20:12:00,
2013-05-10 16:21:00,72.0,62.0,30.00,WNW,301,0.0,1.0,71,0.00,,,0.00,,2013-05-10 20:21:00,
2013-05-10 16:32:00,71.0,60.0,30.01,NW,325,0.0,3.0,68,0.00,,,0.00,,2013-05-10 20:32:00,
2013-05-10 16:42:00,71.0,60.0,30.01,NW,325,0.0,3.0,68,0.00,,,0.00,,2013-05-10 20:42:00,
2013-05-10 16:52:00,71.0,60.0,30.01,NW,326,0.0,1.0,68,0.00,,,0.00,,2013-05-10 20:52:00,
2013-05-10 17:02:00,71.0,61.0,30.00,NW,325,0.0,2.0,70,0.00,,,0.00,,2013-05-10 21:02:00,
2013-05-10 17:11:00,70.0,60.0,30.00,NNE,15,0.0,2.0,70,0.00,,,0.00,,2013-05-10 21:11:00,
2013-05-10 17:25:00,70.0,60.0,30.00,NNE,15,0.0,2.0,70,0.00,,,0.00,,2013-05-10 21:25:00,
2013-05-10 17:32:00,70.0,60.0,30.00,East,92,0.0,1.0,71,0.00,,,0.00,,2013-05-10 21:32:00,
2013-05-10 17:43:00,70.0,59.0,29.98,West,263,0.0,1.0,69,0.00,,,0.00,,2013-05-10 21:43:00,
2013-05-10 17:53:00,70.0,59.0,29.98,West,263,0.0,1.0,69,0.00,,,0.00,,2013-05-10 21:53:00,
2013-05-10 18:02:00,70.0,60.0,29.97,North,355,0.0,3.0,71,0.00,,,0.00,,2013-05-10 22:02:00,
2013-05-10 18:13:00,70.0,60.0,29.97,North,355,0.0,3.0,71,0.00,,,0.00,,2013-05-10 22:13:00,
2013-05-10 18:22:00,72.0,60.0,29.98,West,261,0.0,2.0,67,0.00,,,0.00,,2013-05-10 22:22:00,
2013-05-10 18:32:00,71.0,61.0,29.98,NNW,327,0.0,3.0,70,0.00,,,0.00,,2013-05-10 22:32:00,
2013-05-10 18:42:00,72.0,60.0,29.98,SW,221,0.0,4.0,67,0.00,,,0.00,,2013-05-10 22:42:00,
2013-05-10 18:52:00,72.0,60.0,29.98,SW,221,0.0,4.0,67,0.00,,,0.00,,2013-05-10 22:52:00,
2013-05-10 19:02:00,71.0,59.0,29.98,SW,227,0.0,1.0,67,0.00,,,0.00,,2013-05-10 23:02:00,
2013-05-10 19:12:00,71.0,59.0,29.98,SW,227,0.0,1.0,67,0.00,,,0.00,,2013-05-10 23:12:00,
2013-05-10 19:22:00,70.0,59.0,29.98,NNW,337,0.0,4.0,68,0.00,,,0.00,,2013-05-10 23:22:00,
2013-05-10 19:33:00,70.0,58.0,29.98,WNW,282,0.0,2.0,66,0.00,,,0.00,,2013-05-10 23:33:00,
2013-05-10 19:42:00,70.0,59.0,29.97,NNE,22,0.0,3.0,68,0.00,,,0.00,,2013-05-10 23:42:00,
2013-05-10 19:52:00,70.0,59.0,29.97,NNE,22,0.0,3.0,68,0.00,,,0.00,,2013-05-10 23:52:00,
2013-05-10 20:02:00,70.0,58.0,29.97,NW,315,0.0,4.0,66,0.00,,,0.00,,2013-05-11 00:02:00,
2013-05-10 20:11:00,69.0,58.0,29.98,NW,315,0.0,0.0,68,0.00,,,0.00,,2013-05-11 00:11:00,
2013-05-10 20:21:00,69.0,58.0,29.98,NW,315,0.0,0.0,68,0.00,,,0.00,,2013-05-11 00:21:00,
2013-05-10 20:32:00,69.0,58.0,29.98,NW,321,0.0,1.0,69,0.00,,,0.00,,2013-05-11 00:32:00,
2013-05-10 20:42:00,68.0,58.0,29.99,NW,320,0.0,0.0,70,0.00,,,0.00,,2013-05-11 00:42:00,
2013-05-10 20:52:00,68.0,58.0,29.99,NW,320,0.0,0.0,70,0.00,,,0.00,,2013-05-11 00:52:00,
2013-05-10 21:01:00,68.0,58.0,29.99,NW,320,0.0,0.0,71,0.00,,,0.00,,2013-05-11 01:01:00,
2013-05-10 21:11:00,68.0,58.0,29.99,NW,320,0.0,0.0,71,0.00,,,0.00,,2013-05-11 01:11:00,
2013-05-10 21:21:00,67.0,57.0,29.99,NNW,340,0.0,1.0,71,0.00,,,0.00,,2013-05-11 01:21:00,
2013-05-10 21:32:00,67.0,56.0,29.99,NNW,340,0.0,0.0,68,0.00,,,0.00,,2013-05-11 01:32:00,
2013-05-10 21:42:00,67.0,56.0,29.99,NNW,340,0.0,0.0,69,0.00,,,0.00,,2013-05-11 01:42:00,
2013-05-10 21:52:00,67.0,56.0,29.99,NNW,340,0.0,0.0,69,0.00,,,0.00,,2013-05-11 01:52:00,
2013-05-10 22:02:00,67.0,56.0,29.99,NNW,340,0.0,0.0,68,0.00,,,0.00,,2013-05-11 02:02:00,
2013-05-10 22:11:00,67.0,56.0,29.99,NNW,340,0.0,0.0,68,0.00,,,0.00,,2013-05-11 02:11:00,
2013-05-10 22:22:00,67.0,56.0,29.99,NNW,340,0.0,0.0,69,0.00,,,0.00,,2013-05-11 02:22:00,
2013-05-10 22:32:00,67.0,58.0,30.00,NNW,340,0.0,0.0,72,0.00,,,0.00,,2013-05-11 02:32:00,
2013-05-10 22:42:00,66.0,57.0,30.01,NNW,340,0.0,0.0,73,0.00,,,0.00,,2013-05-11 02:42:00,
2013-05-10 22:52:00,66.0,57.0,30.01,NNW,340,0.0,0.0,73,0.00,,,0.00,,2013-05-11 02:52:00,
2013-05-10 23:01:00,66.0,58.0,30.01,NW,324,0.0,1.0,75,0.00,,,0.00,,2013-05-11 03:01:00,
2013-05-10 23:11:00,66.0,58.0,30.01,NW,324,0.0,1.0,75,0.00,,,0.00,,2013-05-11 03:11:00,
2013-05-10 23:21:00,66.0,58.0,30.01,NW,325,0.0,0.0,75,0.00,,,0.00,,2013-05-11 03:21:00,
2013-05-10 23:33:00,66.0,58.0,30.00,NW,324,0.0,0.0,76,0.00,,,0.00,,2013-05-11 03:33:00,
2013-05-10 23:42:00,66.0,59.0,30.00,NW,324,0.0,0.0,77,0.00,,,0.00,,2013-05-11 03:42:00,
2013-05-10 23:53:00,66.0,59.0,30.00,NW,324,0.0,0.0,77,0.00,,,0.00,,2013-05-11 03:53:00,